Back to catalog

CZ-6A DEB

AliveSSO
NORAD 58429·DEBRIS·🇨🇳 China

Launched Nov 11, 2022 from Taiyuan Satellite Launch Center

Loading…

Next Passes (next 24 hours)

TLE

FreshSource: Space-Track

Epoch: Sep 14, 2026, 10:02 UTC

1 58429U 22151AHX 26257.41815380  .00001385  00000-0  79639-3 0  9995
2 58429  98.8830 247.9936 0084781 121.9869 238.9576 14.09100309176865

Track CZ-6A DEB in real time with AllMySat

Download on the App Store